UVA8447 KBHM-KJKA

Flight info

Callsign UVA8447
Flight time 0h 41m
Altitude 30000
Route GUMMP MVC STETS BFM
Aircraft B77W/H-SDE1E2E3FGHIJ2J3J4J5M1RWXY/LB1D1

Departure

Time 2026-04-27 19:53
Airport Birmingham-Shuttlesworth International Airport (KBHM)

Arrival

Time 2026-04-27 20:34
Airport Jack Edwards National Airport (KJKA)
Time Latitude Longitude Altitude Speed Heading
2026-04-27 19:31 33.56228 -86.75352 645 ft 0 kts 130°
2026-04-27 19:42 33.56239 -86.75367 648 ft 2 kts 152°
2026-04-27 19:42 33.56249 -86.75371 646 ft 2 kts 184°
2026-04-27 19:43 33.56269 -86.75364 649 ft 2 kts 200°
2026-04-27 19:43 33.56280 -86.75360 648 ft 2 kts 200°
2026-04-27 19:43 33.56295 -86.75353 648 ft 2 kts 213°
2026-04-27 19:43 33.56301 -86.75348 649 ft 0 kts 232°
2026-04-27 19:46 33.56288 -86.75381 650 ft 8 kts 264°
2026-04-27 19:46 33.56311 -86.75476 648 ft 14 kts 276°
2026-04-27 19:46 33.56262 -86.75598 647 ft 19 kts 235°
2026-04-27 19:47 33.56186 -86.75730 647 ft 19 kts 235°
2026-04-27 19:47 33.56106 -86.75870 649 ft 22 kts 236°
2026-04-27 19:47 33.56023 -86.76015 647 ft 20 kts 235°
2026-04-27 19:47 33.55945 -86.76150 643 ft 19 kts 235°
2026-04-27 19:48 33.55868 -86.76283 639 ft 20 kts 235°
2026-04-27 19:48 33.55786 -86.76423 639 ft 22 kts 234°
2026-04-27 19:48 33.55711 -86.76549 635 ft 15 kts 235°
2026-04-27 19:48 33.55651 -86.76652 635 ft 16 kts 236°
2026-04-27 19:49 33.55585 -86.76767 637 ft 18 kts 235°
2026-04-27 19:49 33.55515 -86.76890 627 ft 14 kts 236°
2026-04-27 19:49 33.55466 -86.76977 630 ft 7 kts 236°
2026-04-27 19:49 33.55446 -86.77012 629 ft 0 kts 236°
2026-04-27 19:51 33.55444 -86.77014 629 ft 3 kts 236°
2026-04-27 19:51 33.55429 -86.77088 626 ft 11 kts 283°
2026-04-27 19:52 33.55491 -86.77127 624 ft 10 kts 27°
2026-04-27 19:52 33.55508 -86.77103 628 ft 0 kts 56°
2026-04-27 19:52 33.55522 -86.77078 632 ft 30 kts 56°
2026-04-27 19:52 33.55901 -86.76413 642 ft 161 kts 57°
2026-04-27 19:53 33.57617 -86.73589 2782 ft 221 kts 59°
2026-04-27 19:53 33.58528 -86.71987 3538 ft 243 kts 59°
2026-04-27 19:53 33.59465 -86.70335 3966 ft 245 kts 59°
2026-04-27 19:54 33.60462 -86.68586 4011 ft 255 kts 59°
2026-04-27 19:54 33.61424 -86.66819 4006 ft 253 kts 61°
2026-04-27 19:54 33.62394 -86.65075 4017 ft 249 kts 59°
2026-04-27 19:54 33.63363 -86.63333 3990 ft 249 kts 59°
2026-04-27 19:55 33.64332 -86.61610 4039 ft 249 kts 59°
2026-04-27 19:55 33.65322 -86.59865 3980 ft 252 kts 58°
2026-04-27 19:55 33.66290 -86.58158 3982 ft 249 kts 60°
2026-04-27 19:55 33.66937 -86.56324 3908 ft 233 kts 92°
2026-04-27 19:56 33.66469 -86.54539 4224 ft 223 kts 134°
2026-04-27 19:56 33.65293 -86.53382 5260 ft 226 kts 150°
2026-04-27 19:56 33.63773 -86.52551 5940 ft 251 kts 168°
2026-04-27 19:56 33.62013 -86.52441 6930 ft 259 kts 186°
2026-04-27 19:57 33.60209 -86.52719 7903 ft 268 kts 190°
2026-04-27 19:57 33.58345 -86.53085 8982 ft 276 kts 191°
2026-04-27 19:57 33.56442 -86.53462 10085 ft 281 kts 191°
2026-04-27 19:57 33.54483 -86.53843 10996 ft 294 kts 191°
2026-04-27 19:58 33.52358 -86.54243 11400 ft 325 kts 191°
2026-04-27 19:58 33.50027 -86.54666 12051 ft 344 kts 191°
2026-04-27 19:58 33.47649 -86.55082 13013 ft 353 kts 191°
2026-04-27 19:58 33.45177 -86.55508 14097 ft 360 kts 191°
2026-04-27 19:59 33.42671 -86.55936 15141 ft 365 kts 191°
2026-04-27 19:59 33.40165 -86.56361 16202 ft 370 kts 192°
2026-04-27 19:59 33.37583 -86.56798 17264 ft 376 kts 192°
2026-04-27 19:59 33.34966 -86.57240 18281 ft 382 kts 192°
2026-04-27 20:00 33.32332 -86.57684 19187 ft 388 kts 192°
2026-04-27 20:00 33.29621 -86.58141 20103 ft 395 kts 192°
2026-04-27 20:00 33.26871 -86.58603 20973 ft 401 kts 192°
2026-04-27 20:00 33.24073 -86.59075 21853 ft 408 kts 192°
2026-04-27 20:01 33.21260 -86.59549 22703 ft 415 kts 192°
2026-04-27 20:01 33.18375 -86.60034 23551 ft 421 kts 192°
2026-04-27 20:01 33.15450 -86.60527 24299 ft 427 kts 192°
2026-04-27 20:01 33.12483 -86.61024 25038 ft 432 kts 192°
2026-04-27 20:02 33.09506 -86.61544 25782 ft 435 kts 194°
2026-04-27 20:02 33.06542 -86.62352 26516 ft 437 kts 200°
2026-04-27 20:02 33.03698 -86.63523 27210 ft 439 kts 205°
2026-04-27 20:02 33.00815 -86.64869 27762 ft 447 kts 206°
2026-04-27 20:03 32.97892 -86.66253 28297 ft 455 kts 206°
2026-04-27 20:03 32.94918 -86.67657 28838 ft 463 kts 206°
2026-04-27 20:03 32.91893 -86.69064 29375 ft 470 kts 204°
2026-04-27 20:03 32.88809 -86.70349 29918 ft 477 kts 202°
2026-04-27 20:04 32.85598 -86.71594 30087 ft 490 kts 201°
2026-04-27 20:04 32.82293 -86.72835 30082 ft 505 kts 201°
2026-04-27 20:04 32.75515 -86.75357 30056 ft 512 kts 201°
2026-04-27 20:05 32.68658 -86.77941 30040 ft 525 kts 201°
2026-04-27 20:05 32.61651 -86.80613 30030 ft 527 kts 201°
2026-04-27 20:06 32.54686 -86.83272 30049 ft 527 kts 201°
2026-04-27 20:06 32.47681 -86.85943 30058 ft 527 kts 201°
2026-04-27 20:07 32.40716 -86.88593 30077 ft 527 kts 201°
2026-04-27 20:07 32.33745 -86.91241 30090 ft 527 kts 201°
2026-04-27 20:08 32.26735 -86.93898 30069 ft 528 kts 201°
2026-04-27 20:08 32.19754 -86.96540 30065 ft 528 kts 201°
2026-04-27 20:09 32.16273 -86.97856 29766 ft 519 kts 201°
2026-04-27 20:09 32.12862 -86.99140 29047 ft 508 kts 201°
2026-04-27 20:09 32.09519 -87.00398 28366 ft 498 kts 201°
2026-04-27 20:09 32.06249 -87.01629 27702 ft 489 kts 201°
2026-04-27 20:10 32.03025 -87.02844 27151 ft 488 kts 201°
2026-04-27 20:10 31.99771 -87.04077 26674 ft 504 kts 201°
2026-04-27 20:10 31.96407 -87.05350 26180 ft 507 kts 201°
2026-04-27 20:10 31.93036 -87.06620 25704 ft 506 kts 201°
2026-04-27 20:11 31.89701 -87.07871 25237 ft 501 kts 201°
2026-04-27 20:11 31.86434 -87.09095 24781 ft 496 kts 201°
2026-04-27 20:11 31.83147 -87.10325 24322 ft 493 kts 201°
2026-04-27 20:11 31.79875 -87.11551 24103 ft 490 kts 201°
2026-04-27 20:12 31.76637 -87.12763 24007 ft 479 kts 201°
2026-04-27 20:12 31.74545 -87.13544 24012 ft 469 kts 201°
2026-04-27 20:12 31.70480 -87.15062 24018 ft 458 kts 201°
2026-04-27 20:12 31.67437 -87.16200 24031 ft 456 kts 201°
2026-04-27 20:13 31.64548 -87.17447 24029 ft 437 kts 207°
2026-04-27 20:13 31.61906 -87.19026 24035 ft 416 kts 212°
2026-04-27 20:13 31.59392 -87.20599 24034 ft 399 kts 212°
2026-04-27 20:13 31.56969 -87.22104 24046 ft 393 kts 212°
2026-04-27 20:14 31.54541 -87.23606 24056 ft 392 kts 212°
2026-04-27 20:14 31.52150 -87.25080 24069 ft 393 kts 211°
2026-04-27 20:14 31.49727 -87.26568 24060 ft 393 kts 211°
2026-04-27 20:14 31.47290 -87.28060 24071 ft 393 kts 211°
2026-04-27 20:15 31.44873 -87.29538 23932 ft 397 kts 211°
2026-04-27 20:15 31.42355 -87.31081 23730 ft 421 kts 211°
2026-04-27 20:15 31.39658 -87.32735 23528 ft 448 kts 211°
2026-04-27 20:15 31.36861 -87.34447 23291 ft 468 kts 211°
2026-04-27 20:16 31.33959 -87.36213 23028 ft 470 kts 211°
2026-04-27 20:16 31.31056 -87.37973 22762 ft 470 kts 211°
2026-04-27 20:16 31.28168 -87.39719 22474 ft 459 kts 211°
2026-04-27 20:16 31.25395 -87.41393 22051 ft 447 kts 211°
2026-04-27 20:17 31.22658 -87.43047 21568 ft 437 kts 211°
2026-04-27 20:17 31.19981 -87.44668 21116 ft 428 kts 211°
2026-04-27 20:17 31.17359 -87.46257 20669 ft 421 kts 211°
2026-04-27 20:17 31.15643 -87.47297 20378 ft 416 kts 211°
2026-04-27 20:18 31.12238 -87.49361 19799 ft 407 kts 212°
2026-04-27 20:18 31.09768 -87.50858 19379 ft 402 kts 212°
2026-04-27 20:18 31.07295 -87.52354 18957 ft 396 kts 212°
2026-04-27 20:18 31.04860 -87.53827 18545 ft 392 kts 212°
2026-04-27 20:19 31.02468 -87.55273 18091 ft 387 kts 212°
2026-04-27 20:19 31.00084 -87.56713 17683 ft 382 kts 212°
2026-04-27 20:19 30.97742 -87.58126 17286 ft 376 kts 211°
2026-04-27 20:19 30.95435 -87.59519 16904 ft 371 kts 211°
2026-04-27 20:20 30.93186 -87.60875 16534 ft 366 kts 211°
2026-04-27 20:20 30.90944 -87.62226 16078 ft 354 kts 211°
2026-04-27 20:20 30.88810 -87.63506 15547 ft 333 kts 211°
2026-04-27 20:20 30.86794 -87.64716 15047 ft 316 kts 211°
2026-04-27 20:21 30.84877 -87.65869 14560 ft 304 kts 211°
2026-04-27 20:21 30.83038 -87.66976 14096 ft 301 kts 210°
2026-04-27 20:21 30.81138 -87.68124 13662 ft 311 kts 210°
2026-04-27 20:21 30.79202 -87.69293 13168 ft 315 kts 210°
2026-04-27 20:22 30.77242 -87.70472 12673 ft 317 kts 210°
2026-04-27 20:22 30.75326 -87.71622 12143 ft 301 kts 210°
2026-04-27 20:22 30.73526 -87.72698 11644 ft 288 kts 210°
2026-04-27 20:22 30.71769 -87.73750 11152 ft 279 kts 210°
2026-04-27 20:23 30.70048 -87.74782 10693 ft 279 kts 210°
2026-04-27 20:23 30.68326 -87.75817 10256 ft 282 kts 210°
2026-04-27 20:23 30.66574 -87.76870 9774 ft 282 kts 209°
2026-04-27 20:23 30.64842 -87.77910 9285 ft 279 kts 210°
2026-04-27 20:24 30.63106 -87.78916 8930 ft 288 kts 209°
2026-04-27 20:24 30.61356 -87.79960 8546 ft 276 kts 209°
2026-04-27 20:24 30.59687 -87.80968 8085 ft 262 kts 209°
2026-04-27 20:24 30.58091 -87.81910 7794 ft 253 kts 208°
2026-04-27 20:25 30.56521 -87.82841 7340 ft 250 kts 209°
2026-04-27 20:25 30.55017 -87.83750 7042 ft 242 kts 210°
2026-04-27 20:25 30.53530 -87.84648 6589 ft 238 kts 209°
2026-04-27 20:25 30.52070 -87.85531 6098 ft 234 kts 209°
2026-04-27 20:26 30.50639 -87.86363 5568 ft 231 kts 201°
2026-04-27 20:26 30.49077 -87.86607 5107 ft 225 kts 178°
2026-04-27 20:26 30.47528 -87.86506 4619 ft 220 kts 177°
2026-04-27 20:26 30.46004 -87.86409 4116 ft 216 kts 176°
2026-04-27 20:27 30.44524 -87.86330 3740 ft 208 kts 176°
2026-04-27 20:27 30.43095 -87.86264 3254 ft 207 kts 176°
2026-04-27 20:27 30.41651 -87.86210 2815 ft 206 kts 177°
2026-04-27 20:27 30.40210 -87.86163 2200 ft 207 kts 176°
2026-04-27 20:28 30.38810 -87.86103 1778 ft 199 kts 177°
2026-04-27 20:28 30.37490 -87.86068 1626 ft 180 kts 176°
2026-04-27 20:28 30.36258 -87.86058 1624 ft 177 kts 177°
2026-04-27 20:28 30.35431 -87.86056 1612 ft 181 kts 176°
2026-04-27 20:29 30.33771 -87.86067 1584 ft 173 kts 178°
2026-04-27 20:29 30.32628 -87.86085 1573 ft 156 kts 176°
2026-04-27 20:29 30.31559 -87.86107 1564 ft 149 kts 176°
2026-04-27 20:29 30.30520 -87.86141 1603 ft 151 kts 178°
2026-04-27 20:30 30.29469 -87.86136 1596 ft 152 kts 170°
2026-04-27 20:30 30.28812 -87.85922 1573 ft 146 kts 143°
2026-04-27 20:30 30.28284 -87.84958 1596 ft 149 kts 98°
2026-04-27 20:30 30.28408 -87.83329 1613 ft 161 kts 88°
2026-04-27 20:31 30.28487 -87.82465 1623 ft 163 kts 88°
2026-04-27 20:31 30.28677 -87.80769 1608 ft 154 kts 86°
2026-04-27 20:31 30.28785 -87.79946 1574 ft 150 kts 86°
2026-04-27 20:31 30.28943 -87.78758 1596 ft 151 kts 86°
2026-04-27 20:32 30.29095 -87.77574 1627 ft 142 kts 90°
2026-04-27 20:32 30.29151 -87.76498 1589 ft 128 kts 93°
2026-04-27 20:32 30.29163 -87.75450 1487 ft 127 kts 96°
2026-04-27 20:32 30.29137 -87.74426 1381 ft 133 kts 96°
2026-04-27 20:33 30.29087 -87.73356 1278 ft 133 kts 99°
2026-04-27 20:33 30.29030 -87.72267 944 ft 134 kts 96°
2026-04-27 20:33 30.29015 -87.71206 684 ft 134 kts 94°
2026-04-27 20:33 30.29036 -87.70129 406 ft 133 kts 94°
2026-04-27 20:34 30.29016 -87.69088 241 ft 128 kts 91°
2026-04-27 20:34 30.29029 -87.68081 58 ft 121 kts 89°
2026-04-27 20:34 30.29033 -87.67209 28 ft 88 kts 90°
2026-04-27 20:34 30.29030 -87.66715 29 ft 36 kts 90°
2026-04-27 20:35 30.29029 -87.66421 31 ft 34 kts 90°
2026-04-27 20:35 30.29028 -87.66169 31 ft 30 kts 90°
2026-04-27 20:35 30.29029 -87.65930 31 ft 30 kts 82°
2026-04-27 20:35 30.28951 -87.65828 30 ft 17 kts 190°
2026-04-27 20:36 30.28921 -87.65909 30 ft 20 kts 271°
2026-04-27 20:36 30.28924 -87.66121 30 ft 28 kts 271°
2026-04-27 20:36 30.28924 -87.66334 30 ft 23 kts 268°
2026-04-27 20:36 30.28921 -87.66514 30 ft 23 kts 269°
2026-04-27 20:37 30.28920 -87.66668 29 ft 18 kts 270°
2026-04-27 20:37 30.28921 -87.66815 29 ft 19 kts 271°
2026-04-27 20:37 30.28923 -87.66971 29 ft 20 kts 271°
2026-04-27 20:37 30.28923 -87.67137 29 ft 21 kts 270°
2026-04-27 20:38 30.28923 -87.67301 29 ft 21 kts 269°
2026-04-27 20:38 30.28922 -87.67468 29 ft 21 kts 269°
2026-04-27 20:38 30.28921 -87.67635 29 ft 21 kts 270°
2026-04-27 20:38 30.28921 -87.67802 29 ft 18 kts 268°
2026-04-27 20:39 30.28875 -87.67865 29 ft 2 kts 206°
2026-04-27 20:39 30.28860 -87.67922 29 ft 7 kts 268°
2026-04-27 20:39 30.28860 -87.67927 29 ft 0 kts 268°